Home   Weather   Kunming   Past weeks
Flag for China

Past Weather in Kunming, Yunnan, China — Yesterday and Last 2 Weeks

Now
84 °F

Scattered clouds.


Feels Like: 81 °F
Forecast: 76 / 61 °F
Wind: 13 mph from Southwest

Location: Kunming Airport

Current Time: May 21, 2019 at 6:47:59 pm

Latest Report: May 21, 2019 at 6:00 pm


Visibility: N/A

Pressure: 29.98 "Hg (24.16 "Hg at 1909m altitude)

Humidity: 20%

Dew Point: 39 °F

Location of KunmingLocation

Past Weather in Kunming — Graph

°F

Kunming Temperature Yesterday

Maximum temperature yesterday: 86 °F (at 4:00 pm)
Minimum temperature yesterday: 63 °F (at 11:00 pm)
Average temperature yesterday: 72 °F

High & Low Weather Summary for the Past Weeks

 TemperatureHumidityPressure
High88 °F (May 18, 3:00 pm)94% (May 8, 7:00 am)30.18 "Hg (May 8, 7:00 am)
Low52 °F (May 9, 7:00 am)14% (May 12, 5:00 pm)29.83 "Hg (May 18, 5:00 pm)
Average72 °F43%30.02 "Hg
* Reported May 6 5:00 pm — May 21 5:00 pm, Kunming. Weather by CustomWeather, © 2019

Note: Actual official high and low records may vary slightly from our data, if they occured in-between our weather recording intervals... More about our weather records

Advertising

Kunming Weather History for the Previous 24 Hours

Scroll right to see more
 ConditionsComfort  
Time TempWeatherWind HumidityBarometerVisibility
5:00 pm
Tue, May 21
86 °FScattered clouds.17 mph19%29.98 "HgN/A
4:00 pm84 °FPassing clouds.17 mph19%29.98 "HgN/A
3:00 pm84 °FPassing clouds.15 mph20%30.01 "HgN/A
2:00 pm86 °FPassing clouds.15 mph18%30.04 "HgN/A
1:00 pm84 °FPassing clouds.15 mph22%30.07 "HgN/A
12:00 pm79 °FPassing clouds.15 mph30%30.09 "HgN/A
11:00 am77 °FSunny.15 mph36%30.12 "Hg10 mi
10:00 am72 °FClear.10 mph50%30.15 "Hg5 mi
9:00 am66 °FClear.3 mph73%30.15 "Hg4 mi
8:00 am61 °FFog.3 mph88%30.12 "Hg3 mi
7:00 am57 °FFog.1 mph88%30.12 "Hg2 mi
6:00 am57 °FClear.No wind94%30.09 "Hg4 mi
5:00 am57 °FClear.1 mph94%30.09 "Hg10 mi
4:00 am57 °FClear.3 mph94%30.09 "Hg10 mi
3:00 am59 °FClear.1 mph88%30.12 "Hg10 mi
2:00 am59 °FClear.10 mph88%30.12 "Hg10 mi
1:00 am61 °FClear.8 mph88%30.15 "Hg10 mi
12:00 am63 °FClear.13 mph83%30.15 "Hg10 mi
11:00 pm
Mon, May 20
63 °FClear.10 mph83%30.12 "Hg10 mi
10:00 pm64 °FClear.10 mph73%30.12 "Hg10 mi
9:00 pm66 °FClear.13 mph68%30.09 "Hg10 mi
8:00 pm72 °FPassing clouds.13 mph61%30.07 "HgN/A
7:00 pm82 °FScattered clouds.13 mph28%30.01 "HgN/A
6:00 pm86 °FScattered clouds.15 mph24%30.01 "HgN/A
Weather by CustomWeather, © 2019

See weather overview